QPF
0.00 0.00 0.00 0.00 0.00 0.00 0.00 0.00 0.01 0.00 0.01 0.00 0.00 0.01 0.01 0.00 0.00 0.00 0.00 0.01 0.00 0.01 0.02 0.02 0.02 0.02 0.02 0.01 0.01 0.01 0.00 0.01 0.01 0.01 0.01 0.01 0.01 0.01 0.01 0.01 0.01 0.01 0.01 0.01
0.00 0.00 0.00 0.00 0.00 0.00 0.00 0.00 0.00 0.00 0.00 0.00 0.00 0.01 0.01 0.01 0.00 0.01 0.01 0.00 0.00 0.01 0.02 0.02 0.02 0.02 0.01 0.01 0.01 0.01 0.01 0.01 0.01 0.03 0.02 0.01 0.01 0.01 0.01 0.01 0.01 0.01 0.01 0.01
0.00 0.00 0.00 0.00 0.00 0.00 0.00 0.00 0.00 0.00 0.00 0.00 0.00 0.00 0.01 0.01 0.00 0.00 0.01 0.01 0.00 0.01 0.02 0.02 0.01 0.01 0.00 0.01 0.01 0.00 0.01 0.02 0.02 0.02 0.02 0.02 0.01 0.01 0.01 0.01 0.02 0.02 0.01 0.01
0.00 0.00 0.01 0.00 0.00 0.00 0.00 0.00 0.00 0.00 0.00 0.00 0.00 0.00 0.00 0.00 0.00 0.00 0.00 0.00 0.01 0.01 0.02 0.02 0.01 0.01 0.00 0.00 0.00 0.00 0.00 0.01 0.02 0.02 0.02 0.01 0.01 0.01 0.01 0.01 0.01 0.01 0.01 0.01
0.01 0.01 0.01 0.00 0.00 0.00 0.00 0.00 0.00 0.00 0.00 0.00 0.00 0.00 0.00 0.00 0.00 0.00 0.00 0.00 0.00 0.01 0.03 0.03 0.01 0.00 0.00 0.00 0.00 0.00 0.00 0.00 0.00 0.01 0.01 0.02 0.01 0.01 0.01 0.01 0.01 0.01 0.01 0.00
0.01 0.02 0.01 0.00 0.01 0.01 0.01 0.01 0.00 0.00 0.00 0.00 0.00 0.00 0.00 0.00 0.00 0.00 0.00 0.00 0.00 0.01 0.02 0.03 0.01 0.01 0.00 0.00 0.00 0.01 0.01 0.00 0.00 0.00 0.01 0.01 0.01 0.02 0.02 0.01 0.01 0.01 0.01 0.00
0.01 0.01 0.01 0.01 0.02 0.03 0.02 0.02 0.02 0.01 0.01 0.00 0.00 0.00 0.00 0.00 0.00 0.00 0.00 0.00 0.00 0.01 0.02 0.02 0.01 0.01 0.00 0.00 0.01 0.01 0.01 0.02 0.01 0.00 0.01 0.01 0.01 0.02 0.03 0.02 0.01 0.01 0.01 0.00
0.02 0.03 0.02 0.02 0.04 0.05 0.05 0.05 0.05 0.04 0.02 0.00 0.00 0.00 0.00 0.00 0.00 0.00 0.00 0.00 0.00 0.01 0.03 0.01 0.00 0.00 0.00 0.00 0.00 0.01 0.01 0.01 0.01 0.01 0.01 0.01 0.01 0.01 0.02 0.03 0.02 0.02 0.01 0.01
0.04 0.03 0.02 0.02 0.03 0.03 0.03 0.04 0.02 0.01 0.01 0.00 0.00 0.00 0.00 0.00 0.00 0.00 0.00 0.00 0.00 0.01 0.02 0.01 0.00 0.00 0.00 0.00 0.00 0.00 0.00 0.00 0.01 0.01 0.02 0.02 0.01 0.02 0.01 0.02 0.02 0.03 0.03 0.02
0.03 0.03 0.02 0.02 0.02 0.02 0.01 0.01 0.00 0.00 0.00 0.00 0.00 0.00 0.00 0.00 0.00 0.00 0.00 0.00 0.01 0.01 0.02 0.01 0.01 0.01 0.00 0.00 0.00 0.00 0.01 0.01 0.01 0.01 0.01 0.02 0.02 0.02 0.01 0.01 0.01 0.02 0.03 0.03
0.03 0.03 0.03 0.02 0.03 0.02 0.01 0.00 0.00 0.00 0.00 0.00 0.01 0.01 0.00 0.00 0.00 0.00 0.00 0.00 0.00 0.01 0.01 0.01 0.01 0.01 0.01 0.01 0.01 0.01 0.01 0.01 0.01 0.01 0.01 0.01 0.01 0.01 0.01 0.01 0.01 0.01 0.02 0.02
0.02 0.02 0.03 0.02 0.02 0.01 0.01 0.00 0.00 0.01 0.01 0.01 0.01 0.02 0.01 0.00 0.00 0.00 0.00 0.00 0.00 0.00 0.00 0.00 0.00 0.00 0.00 0.01 0.01 0.01 0.01 0.01 0.01 0.00 0.01 0.01 0.01 0.02 0.03 0.03 0.03 0.02 0.03 0.02
0.01 0.01 0.02 0.01 0.00 0.01 0.01 0.01 0.01 0.01 0.01 0.02 0.02 0.02 0.02 0.01 0.00 0.00 0.00 0.00 0.00 0.00 0.00 0.00 0.00 0.00 0.00 0.00 0.01 0.01 0.01 0.01 0.01 0.01 0.02 0.02 0.02 0.02 0.03 0.05 0.06 0.06 0.06 0.06
0.01 0.01 0.02 0.01 0.00 0.01 0.01 0.01 0.02 0.03 0.04 0.03 0.03 0.02 0.02 0.01 0.00 0.00 0.00 0.00 0.00 0.00 0.00 0.00 0.00 0.00 0.00 0.01 0.01 0.01 0.01 0.01 0.01 0.02 0.02 0.02 0.02 0.03 0.03 0.04 0.06 0.06 0.06 0.06
0.01 0.02 0.02 0.01 0.01 0.01 0.01 0.03 0.02 0.02 0.02 0.02 0.01 0.01 0.01 0.01 0.00 0.00 0.00 0.00 0.00 0.00 0.00 0.00 0.00 0.00 0.01 0.01 0.01 0.01 0.01 0.01 0.02 0.02 0.02 0.02 0.02 0.02 0.03 0.03 0.03 0.03 0.04 0.04
0.02 0.02 0.02 0.02 0.02 0.01 0.02 0.02 0.02 0.02 0.01 0.01 0.01 0.01 0.00 0.00 0.00 0.00 0.00 0.00 0.00 0.00 0.00 0.00 0.00 0.00 0.01 0.01 0.02 0.02 0.03 0.03 0.02 0.02 0.02 0.02 0.02 0.03 0.03 0.03 0.03 0.03 0.04 0.04
0.05 0.05 0.05 0.04 0.04 0.02 0.02 0.03 0.03 0.02 0.01 0.00 0.00 0.00 0.00 0.00 0.00 0.00 0.00 0.00 0.00 0.00 0.01 0.01 0.01 0.01 0.01 0.02 0.03 0.03 0.04 0.04 0.04 0.03 0.02 0.03 0.03 0.03 0.03 0.02 0.02 0.02 0.03 0.03
0.05 0.06 0.07 0.08 0.08 0.06 0.04 0.03 0.03 0.02 0.01 0.01 0.00 0.01 0.01 0.01 0.00 0.00 0.01 0.01 0.01 0.01 0.01 0.01 0.01 0.01 0.02 0.03 0.03 0.04 0.05 0.05 0.04 0.03 0.02 0.03 0.02 0.02 0.03 0.03 0.02 0.02 0.03 0.04
0.06 0.06 0.07 0.08 0.09 0.09 0.07 0.04 0.03 0.04 0.03 0.02 0.01 0.01 0.02 0.01 0.01 0.01 0.01 0.01 0.02 0.02 0.02 0.03 0.03 0.03 0.03 0.04 0.05 0.06 0.05 0.04 0.05 0.04 0.04 0.04 0.03 0.03 0.04 0.04 0.04 0.03 0.03 0.04
0.07 0.07 0.08 0.09 0.10 0.11 0.10 0.07 0.06 0.06 0.05 0.03 0.02 0.02 0.02 0.02 0.01 0.02 0.02 0.02 0.02 0.03 0.03 0.04 0.04 0.04 0.04 0.04 0.06 0.08 0.08 0.06 0.07 0.06 0.05 0.05 0.04 0.03 0.04 0.05 0.05 0.05 0.04 0.04
0.06 0.07 0.08 0.09 0.09 0.09 0.11 0.12 0.10 0.08 0.07 0.05 0.04 0.04 0.03 0.02 0.02 0.02 0.02 0.02 0.02 0.03 0.04 0.05 0.05 0.05 0.05 0.05 0.06 0.07 0.09 0.10 0.10 0.09 0.07 0.05 0.04 0.03 0.03 0.03 0.05 0.06 0.05 0.03
0.04 0.05 0.07 0.07 0.07 0.08 0.09 0.09 0.07 0.06 0.06 0.06 0.05 0.03 0.03 0.03 0.03 0.03 0.03 0.02 0.03 0.03 0.03 0.04 0.05 0.05 0.05 0.05 0.05 0.05 0.08 0.10 0.10 0.12 0.10 0.06 0.04 0.04 0.03 0.02 0.04 0.05 0.06 0.05
0.03 0.04 0.06 0.06 0.06 0.05 0.05 0.06 0.05 0.04 0.04 0.06 0.06 0.04 0.04 0.06 0.05 0.05 0.04 0.03 0.03 0.03 0.02 0.03 0.05 0.06 0.06 0.05 0.05 0.05 0.05 0.07 0.08 0.09 0.10 0.08 0.06 0.05 0.05 0.04 0.04 0.05 0.05 0.06
0.01 0.01 0.02 0.03 0.03 0.03 0.03 0.04 0.04 0.04 0.03 0.05 0.05 0.04 0.05 0.06 0.06 0.06 0.05 0.06 0.05 0.03 0.02 0.03 0.05 0.05 0.05 0.05 0.05 0.05 0.04 0.04 0.06 0.07 0.07 0.07 0.06 0.05 0.05 0.05 0.05 0.06 0.06 0.06
0.01 0.01 0.01 0.01 0.01 0.02 0.03 0.02 0.02 0.03 0.04 0.04 0.05 0.05 0.05 0.05 0.05 0.06 0.06 0.05 0.05 0.03 0.02 0.03 0.03 0.04 0.04 0.04 0.04 0.04 0.03 0.03 0.04 0.05 0.06 0.06 0.06 0.05 0.05 0.04 0.04 0.05 0.06 0.06
0.01 0.01 0.01 0.01 0.01 0.01 0.01 0.01 0.02 0.02 0.03 0.05 0.06 0.05 0.05 0.05 0.05 0.05 0.05 0.05 0.05 0.04 0.03 0.03 0.03 0.04 0.04 0.03 0.03 0.03 0.02 0.02 0.03 0.03 0.03 0.04 0.05 0.06 0.06 0.05 0.04 0.04 0.04 0.04
0.01 0.01 0.01 0.01 0.01 0.01 0.01 0.01 0.02 0.02 0.03 0.05 0.06 0.06 0.06 0.05 0.05 0.05 0.05 0.06 0.07 0.06 0.05 0.04 0.03 0.03 0.02 0.02 0.02 0.02 0.02 0.02 0.02 0.02 0.03 0.03 0.05 0.06 0.05 0.05 0.06 0.05 0.05 0.04
MSLP
1015.02 1015.37 1015.69 1015.98 1016.20 1016.34 1016.37 1016.28 1016.05 1015.70 1015.23 1014.69 1014.12 1013.56 1013.04 1012.60 1012.26 1012.02 1011.88 1011.82 1011.84 1011.92 1012.07 1012.29 1012.59 1012.98 1013.47 1014.04 1014.70 1015.42 1016.16 1016.89 1017.59 1018.23 1018.80 1019.29 1019.71 1020.09 1020.42 1020.74 1021.04 1021.32 1021.60 1021.85
1015.30 1015.58 1015.79 1015.93 1015.99 1015.95 1015.83 1015.62 1015.33 1014.97 1014.57 1014.15 1013.73 1013.33 1012.98 1012.67 1012.42 1012.22 1012.06 1011.95 1011.90 1011.90 1011.98 1012.16 1012.45 1012.86 1013.39 1014.04 1014.79 1015.60 1016.42 1017.23 1017.99 1018.67 1019.26 1019.77 1020.21 1020.59 1020.93 1021.25 1021.57 1021.87 1022.16 1022.43
1015.47 1015.67 1015.77 1015.76 1015.66 1015.48 1015.22 1014.91 1014.58 1014.24 1013.91 1013.61 1013.34 1013.11 1012.90 1012.72 1012.55 1012.38 1012.22 1012.07 1011.95 1011.89 1011.91 1012.05 1012.32 1012.75 1013.33 1014.05 1014.88 1015.76 1016.66 1017.53 1018.33 1019.05 1019.66 1020.19 1020.64 1021.04 1021.40 1021.74 1022.07 1022.39 1022.70 1022.99
1015.46 1015.57 1015.56 1015.43 1015.20 1014.89 1014.53 1014.16 1013.81 1013.50 1013.25 1013.06 1012.93 1012.84 1012.76 1012.69 1012.59 1012.45 1012.29 1012.11 1011.95 1011.84 1011.82 1011.93 1012.21 1012.66 1013.28 1014.06 1014.94 1015.88 1016.83 1017.74 1018.58 1019.32 1019.96 1020.50 1020.97 1021.39 1021.77 1022.14 1022.50 1022.85 1023.18 1023.49
1015.27 1015.28 1015.17 1014.94 1014.60 1014.21 1013.79 1013.39 1013.04 1012.78 1012.60 1012.52 1012.50 1012.53 1012.56 1012.57 1012.53 1012.42 1012.26 1012.07 1011.88 1011.75 1011.71 1011.83 1012.11 1012.59 1013.25 1014.06 1014.98 1015.96 1016.94 1017.87 1018.72 1019.48 1020.13 1020.68 1021.17 1021.61 1022.03 1022.43 1022.83 1023.22 1023.58 1023.91
1014.91 1014.83 1014.63 1014.31 1013.92 1013.47 1013.03 1012.64 1012.32 1012.11 1012.01 1012.02 1012.10 1012.21 1012.32 1012.39 1012.39 1012.32 1012.17 1011.97 1011.78 1011.65 1011.62 1011.75 1012.06 1012.56 1013.25 1014.09 1015.03 1016.02 1017.00 1017.93 1018.77 1019.52 1020.16 1020.73 1021.23 1021.70 1022.15 1022.60 1023.04 1023.47 1023.87 1024.24
1014.44 1014.28 1014.00 1013.64 1013.22 1012.77 1012.35 1011.98 1011.72 1011.57 1011.54 1011.62 1011.77 1011.95 1012.11 1012.22 1012.24 1012.18 1012.05 1011.87 1011.69 1011.57 1011.57 1011.72 1012.06 1012.59 1013.30 1014.15 1015.09 1016.06 1017.02 1017.93 1018.74 1019.46 1020.10 1020.66 1021.17 1021.66 1022.15 1022.64 1023.13 1023.61 1024.06 1024.47
1013.95 1013.71 1013.39 1013.02 1012.60 1012.18 1011.80 1011.50 1011.30 1011.22 1011.25 1011.38 1011.57 1011.79 1011.97 1012.09 1012.13 1012.08 1011.96 1011.80 1011.65 1011.56 1011.59 1011.78 1012.15 1012.70 1013.41 1014.26 1015.18 1016.12 1017.04 1017.89 1018.67 1019.35 1019.96 1020.51 1021.03 1021.54 1022.06 1022.59 1023.13 1023.66 1024.16 1024.60
1013.51 1013.22 1012.88 1012.51 1012.13 1011.77 1011.46 1011.23 1011.10 1011.08 1011.16 1011.33 1011.54 1011.76 1011.94 1012.06 1012.09 1012.04 1011.93 1011.78 1011.66 1011.60 1011.67 1011.89 1012.28 1012.85 1013.56 1014.38 1015.27 1016.17 1017.03 1017.83 1018.56 1019.20 1019.78 1020.32 1020.84 1021.37 1021.92 1022.49 1023.07 1023.65 1024.19 1024.67
1013.16 1012.84 1012.51 1012.17 1011.85 1011.56 1011.33 1011.18 1011.12 1011.15 1011.27 1011.45 1011.65 1011.85 1012.01 1012.10 1012.11 1012.05 1011.93 1011.80 1011.70 1011.67 1011.77 1012.01 1012.42 1012.99 1013.68 1014.48 1015.32 1016.17 1016.98 1017.73 1018.41 1019.02 1019.57 1020.10 1020.63 1021.18 1021.75 1022.36 1022.98 1023.59 1024.17 1024.69
1012.90 1012.57 1012.27 1011.99 1011.74 1011.53 1011.38 1011.30 1011.29 1011.36 1011.49 1011.66 1011.84 1012.00 1012.11 1012.16 1012.13 1012.05 1011.92 1011.79 1011.70 1011.70 1011.81 1012.06 1012.47 1013.03 1013.70 1014.46 1015.26 1016.06 1016.83 1017.54 1018.18 1018.77 1019.32 1019.85 1020.40 1020.97 1021.57 1022.20 1022.86 1023.50 1024.11 1024.66
1012.68 1012.39 1012.13 1011.91 1011.73 1011.60 1011.51 1011.49 1011.51 1011.59 1011.71 1011.85 1011.98 1012.08 1012.14 1012.14 1012.07 1011.96 1011.81 1011.68 1011.59 1011.59 1011.71 1011.96 1012.36 1012.90 1013.54 1014.26 1015.02 1015.78 1016.52 1017.20 1017.84 1018.43 1018.99 1019.55 1020.12 1020.72 1021.35 1022.02 1022.70 1023.37 1024.00 1024.57
1012.46 1012.20 1012.00 1011.85 1011.73 1011.66 1011.62 1011.63 1011.66 1011.73 1011.82 1011.90 1011.98 1012.02 1012.02 1011.96 1011.85 1011.71 1011.55 1011.41 1011.32 1011.32 1011.43 1011.67 1012.04 1012.55 1013.15 1013.84 1014.56 1015.30 1016.02 1016.70 1017.35 1017.96 1018.56 1019.15 1019.76 1020.39 1021.06 1021.75 1022.46 1023.15 1023.80 1024.39
1012.17 1011.97 1011.83 1011.73 1011.67 1011.64 1011.63 1011.63 1011.66 1011.69 1011.73 1011.76 1011.77 1011.75 1011.69 1011.59 1011.45 1011.28 1011.11 1010.96 1010.87 1010.86 1010.96 1011.18 1011.52 1011.99 1012.55 1013.20 1013.90 1014.61 1015.33 1016.02 1016.69 1017.34 1017.98 1018.62 1019.27 1019.95 1020.65 1021.37 1022.09 1022.80 1023.47 1024.07
1011.80 1011.66 1011.57 1011.52 1011.49 1011.48 1011.47 1011.47 1011.46 1011.45 1011.43 1011.40 1011.35 1011.28 1011.18 1011.04 1010.89 1010.71 1010.54 1010.40 1010.30 1010.28 1010.36 1010.55 1010.86 1011.28 1011.80 1012.41 1013.07 1013.77 1014.48 1015.19 1015.89 1016.58 1017.26 1017.94 1018.64 1019.35 1020.07 1020.81 1021.55 1022.27 1022.95 1023.57
1011.36 1011.27 1011.23 1011.22 1011.22 1011.21 1011.19 1011.15 1011.10 1011.04 1010.96 1010.88 1010.79 1010.68 1010.55 1010.41 1010.25 1010.09 1009.93 1009.80 1009.70 1009.68 1009.73 1009.89 1010.15 1010.52 1011.00 1011.56 1012.18 1012.86 1013.56 1014.28 1014.99 1015.71 1016.42 1017.14 1017.86 1018.59 1019.32 1020.07 1020.81 1021.53 1022.21 1022.85
1010.89 1010.86 1010.86 1010.88 1010.88 1010.86 1010.82 1010.75 1010.65 1010.54 1010.42 1010.30 1010.18 1010.05 1009.93 1009.79 1009.65 1009.51 1009.38 1009.26 1009.17 1009.14 1009.17 1009.29 1009.51 1009.82 1010.24 1010.74 1011.32 1011.96 1012.64 1013.34 1014.06 1014.78 1015.51 1016.23 1016.95 1017.68 1018.41 1019.14 1019.86 1020.58 1021.27 1021.92
1010.46 1010.48 1010.52 1010.55 1010.56 1010.53 1010.46 1010.35 1010.21 1010.07 1009.91 1009.77 1009.63 1009.51 1009.39 1009.28 1009.17 1009.06 1008.95 1008.85 1008.77 1008.73 1008.74 1008.82 1008.98 1009.24 1009.59 1010.03 1010.55 1011.14 1011.78 1012.45 1013.15 1013.85 1014.55 1015.26 1015.95 1016.65 1017.35 1018.05 1018.75 1019.44 1020.13 1020.79
1010.12 1010.18 1010.25 1010.29 1010.30 1010.25 1010.16 1010.02 1009.86 1009.68 1009.51 1009.35 1009.21 1009.10 1009.00 1008.92 1008.84 1008.76 1008.67 1008.59 1008.51 1008.46 1008.44 1008.48 1008.59 1008.78 1009.07 1009.44 1009.90 1010.43 1011.02 1011.64 1012.29 1012.95 1013.61 1014.26 1014.91 1015.55 1016.20 1016.85 1017.51 1018.17 1018.85 1019.52
1009.89 1009.98 1010.07 1010.12 1010.12 1010.06 1009.94 1009.78 1009.59 1009.40 1009.21 1009.05 1008.91 1008.81 1008.73 1008.67 1008.61 1008.55 1008.48 1008.40 1008.31 1008.24 1008.19 1008.19 1008.25 1008.39 1008.61 1008.92 1009.32 1009.79 1010.31 1010.88 1011.47 1012.07 1012.67 1013.26 1013.85 1014.42 1015.01 1015.59 1016.20 1016.83 1017.49 1018.16
1009.72 1009.84 1009.94 1009.99 1009.98 1009.90 1009.76 1009.58 1009.37 1009.16 1008.96 1008.79 1008.66 1008.56 1008.49 1008.43 1008.37 1008.31 1008.23 1008.14 1008.04 1007.94 1007.86 1007.82 1007.84 1007.93 1008.10 1008.37 1008.71 1009.13 1009.61 1010.13 1010.66 1011.20 1011.74 1012.27 1012.78 1013.29 1013.80 1014.33 1014.88 1015.47 1016.11 1016.78
1009.58 1009.71 1009.81 1009.84 1009.81 1009.71 1009.55 1009.34 1009.12 1008.88 1008.67 1008.49 1008.34 1008.23 1008.14 1008.06 1007.99 1007.91 1007.80 1007.68 1007.55 1007.42 1007.31 1007.24 1007.23 1007.29 1007.43 1007.67 1007.98 1008.37 1008.82 1009.30 1009.79 1010.29 1010.77 1011.24 1011.70 1012.14 1012.60 1013.07 1013.58 1014.13 1014.75 1015.42
1009.40 1009.52 1009.60 1009.61 1009.54 1009.41 1009.21 1008.98 1008.72 1008.47 1008.23 1008.02 1007.85 1007.70 1007.58 1007.47 1007.35 1007.23 1007.08 1006.92 1006.75 1006.59 1006.45 1006.35 1006.32 1006.37 1006.50 1006.73 1007.04 1007.43 1007.86 1008.33 1008.80 1009.28 1009.73 1010.16 1010.57 1010.98 1011.39 1011.82 1012.29 1012.82 1013.42 1014.09
1009.13 1009.22 1009.26 1009.22 1009.11 1008.93 1008.69 1008.42 1008.12 1007.84 1007.56 1007.32 1007.11 1006.92 1006.75 1006.58 1006.41 1006.23 1006.03 1005.82 1005.61 1005.41 1005.25 1005.14 1005.10 1005.16 1005.30 1005.54 1005.87 1006.26 1006.71 1007.18 1007.66 1008.13 1008.58 1009.00 1009.39 1009.77 1010.16 1010.57 1011.02 1011.54 1012.13 1012.79
1008.76 1008.80 1008.77 1008.67 1008.50 1008.26 1007.97 1007.64 1007.31 1006.98 1006.67 1006.39 1006.13 1005.89 1005.67 1005.44 1005.21 1004.97 1004.72 1004.46 1004.20 1003.98 1003.80 1003.68 1003.64 1003.71 1003.87 1004.13 1004.48 1004.91 1005.37 1005.87 1006.37 1006.85 1007.30 1007.73 1008.12 1008.50 1008.89 1009.30 1009.75 1010.26 1010.84 1011.51
1008.31 1008.27 1008.16 1007.98 1007.73 1007.42 1007.07 1006.69 1006.32 1005.95 1005.60 1005.27 1004.97 1004.69 1004.41 1004.14 1003.85 1003.55 1003.25 1002.95 1002.66 1002.41 1002.22 1002.09 1002.07 1002.14 1002.32 1002.60 1002.98 1003.42 1003.91 1004.42 1004.94 1005.44 1005.91 1006.35 1006.76 1007.16 1007.56 1007.98 1008.44 1008.96 1009.56 1010.23
1007.80 1007.66 1007.46 1007.18 1006.85 1006.47 1006.05 1005.63 1005.21 1004.81 1004.43 1004.07 1003.74 1003.42 1003.10 1002.79 1002.46 1002.13 1001.79 1001.46 1001.15 1000.88 1000.67 1000.55 1000.52 1000.59 1000.78 1001.07 1001.44 1001.89 1002.39 1002.91 1003.43 1003.94 1004.43 1004.89 1005.32 1005.74 1006.16 1006.61 1007.09 1007.63 1008.25 1008.95
Thickness
5693 5698 5697 5693 5693 5694 5689 5688 5682 5689 5695 5702 5708 5708 5710 5710 5709 5707 5705 5705 5705 5704 5704 5703 5704 5706 5706 5705 5705 5704 5701 5698 5696 5696 5694 5693 5691 5690 5689 5688 5687 5686 5684 5683
5683 5692 5692 5689 5693 5693 5691 5692 5690 5690 5693 5707 5710 5709 5706 5706 5704 5700 5699 5700 5701 5701 5700 5700 5700 5701 5702 5701 5701 5700 5697 5695 5694 5692 5690 5689 5688 5686 5685 5683 5682 5681 5680 5679
5667 5680 5681 5675 5690 5691 5689 5694 5691 5683 5691 5702 5700 5699 5699 5700 5699 5697 5696 5697 5697 5697 5697 5697 5698 5699 5698 5699 5698 5696 5694 5692 5691 5689 5686 5685 5684 5682 5679 5678 5677 5676 5676 5675
5660 5661 5650 5680 5701 5698 5691 5691 5693 5693 5694 5696 5696 5698 5699 5699 5696 5694 5694 5694 5694 5694 5694 5695 5697 5696 5696 5696 5693 5691 5690 5688 5686 5684 5681 5681 5679 5677 5675 5674 5673 5672 5671 5671
5649 5646 5657 5677 5688 5687 5680 5680 5691 5688 5690 5692 5694 5692 5690 5696 5694 5691 5691 5691 5691 5691 5691 5691 5691 5692 5692 5690 5688 5686 5684 5683 5683 5681 5678 5675 5673 5672 5672 5671 5669 5668 5667 5667
5644 5636 5639 5666 5680 5687 5676 5666 5684 5684 5681 5682 5682 5668 5673 5687 5688 5687 5687 5687 5686 5686 5686 5685 5686 5687 5685 5683 5681 5680 5680 5679 5679 5677 5674 5672 5670 5669 5669 5667 5666 5665 5664 5664
5637 5635 5649 5668 5674 5673 5650 5655 5673 5675 5673 5673 5669 5669 5675 5681 5681 5681 5680 5681 5681 5680 5678 5678 5680 5680 5677 5676 5676 5677 5677 5675 5673 5672 5670 5669 5666 5665 5664 5663 5662 5661 5660 5661
5637 5629 5637 5663 5662 5654 5653 5664 5665 5665 5666 5665 5666 5669 5670 5671 5671 5672 5672 5673 5673 5671 5671 5672 5674 5673 5670 5669 5672 5672 5671 5669 5667 5667 5666 5665 5662 5660 5659 5658 5656 5656 5655 5655
5640 5639 5652 5657 5654 5657 5659 5656 5658 5658 5660 5659 5658 5658 5660 5662 5663 5664 5665 5665 5666 5664 5663 5665 5666 5666 5664 5665 5667 5665 5664 5663 5662 5661 5660 5660 5657 5655 5653 5653 5651 5651 5650 5649
5636 5641 5646 5647 5649 5651 5652 5651 5653 5654 5654 5652 5650 5650 5651 5652 5653 5655 5656 5657 5657 5657 5656 5656 5659 5659 5660 5660 5660 5658 5657 5656 5656 5655 5654 5654 5652 5651 5649 5648 5647 5646 5645 5645
5626 5632 5635 5639 5641 5642 5643 5644 5644 5645 5645 5644 5643 5642 5643 5643 5644 5646 5648 5649 5649 5649 5649 5650 5652 5653 5654 5654 5654 5652 5651 5650 5649 5648 5648 5647 5647 5646 5646 5646 5645 5643 5642 5642
5615 5623 5623 5626 5631 5633 5632 5632 5634 5634 5635 5636 5635 5634 5634 5634 5636 5638 5639 5640 5640 5641 5642 5643 5645 5645 5646 5647 5647 5645 5644 5643 5642 5641 5641 5640 5639 5639 5640 5640 5641 5640 5640 5638
5617 5619 5618 5619 5621 5623 5623 5624 5626 5626 5626 5626 5627 5627 5626 5627 5628 5630 5631 5631 5632 5633 5634 5635 5636 5637 5638 5639 5639 5638 5637 5637 5636 5636 5635 5634 5633 5632 5630 5631 5632 5632 5632 5632
5609 5607 5605 5607 5608 5611 5613 5615 5617 5617 5618 5619 5619 5619 5618 5618 5619 5620 5622 5623 5624 5625 5626 5627 5627 5628 5631 5631 5631 5631 5631 5631 5630 5629 5628 5628 5627 5626 5625 5624 5623 5623 5623 5623
5597 5596 5594 5596 5598 5600 5603 5604 5605 5606 5608 5609 5610 5610 5610 5609 5610 5612 5615 5616 5616 5616 5617 5618 5619 5620 5622 5623 5622 5623 5622 5622 5622 5622 5621 5621 5621 5620 5619 5618 5618 5617 5615 5614
5587 5586 5586 5586 5587 5589 5592 5594 5594 5596 5599 5600 5601 5602 5603 5603 5603 5605 5606 5607 5606 5606 5607 5608 5610 5612 5613 5613 5613 5613 5613 5613 5613 5613 5613 5613 5613 5612 5612 5611 5611 5611 5609 5607
5575 5575 5575 5576 5577 5579 5581 5584 5585 5588 5590 5592 5593 5594 5594 5594 5595 5596 5597 5599 5599 5599 5600 5600 5602 5603 5604 5604 5604 5603 5603 5603 5604 5604 5604 5605 5605 5605 5605 5605 5605 5605 5604 5603
5568 5568 5568 5568 5569 5570 5572 5575 5577 5579 5581 5583 5584 5585 5585 5585 5586 5587 5588 5589 5590 5590 5592 5593 5593 5594 5595 5595 5595 5594 5594 5595 5595 5595 5596 5596 5597 5598 5599 5598 5598 5598 5597 5596
5560 5561 5561 5561 5562 5563 5564 5565 5567 5570 5572 5574 5575 5575 5576 5577 5579 5580 5580 5579 5579 5580 5582 5584 5584 5585 5584 5585 5585 5585 5586 5586 5586 5586 5587 5588 5589 5590 5590 5590 5590 5589 5589 5587
5552 5552 5552 5553 5553 5553 5554 5556 5557 5560 5562 5564 5565 5566 5567 5568 5570 5571 5571 5569 5569 5571 5574 5575 5575 5575 5575 5575 5575 5576 5576 5576 5576 5577 5578 5578 5579 5579 5580 5580 5580 5579 5579 5578
5542 5542 5543 5542 5543 5544 5546 5547 5548 5549 5551 5552 5553 5555 5556 5558 5559 5560 5560 5559 5561 5562 5564 5565 5565 5565 5566 5566 5566 5566 5566 5566 5566 5566 5567 5567 5568 5568 5568 5568 5568 5568 5568 5567
5533 5532 5532 5533 5534 5535 5536 5537 5538 5539 5541 5542 5543 5544 5545 5546 5547 5548 5549 5549 5551 5552 5553 5554 5555 5555 5556 5556 5555 5556 5556 5556 5556 5556 5556 5556 5556 5556 5556 5556 5556 5556 5556 5555
5523 5522 5522 5523 5524 5525 5526 5527 5528 5528 5529 5530 5530 5531 5533 5534 5535 5536 5537 5538 5540 5541 5542 5543 5543 5544 5544 5544 5544 5545 5545 5545 5544 5545 5545 5545 5544 5544 5544 5544 5543 5543 5543 5542
5514 5513 5513 5514 5514 5514 5514 5515 5515 5516 5516 5517 5518 5519 5520 5521 5523 5524 5525 5527 5528 5529 5530 5531 5532 5532 5532 5533 5533 5533 5533 5532 5532 5533 5533 5534 5533 5533 5533 5532 5531 5531 5531 5530
5505 5504 5504 5504 5503 5502 5502 5502 5503 5503 5503 5504 5505 5507 5508 5509 5510 5512 5514 5515 5517 5517 5518 5519 5520 5521 5520 5521 5521 5521 5521 5521 5521 5521 5521 5521 5521 5521 5521 5521 5520 5519 5519 5518
5494 5493 5493 5492 5492 5491 5491 5490 5490 5491 5491 5491 5493 5495 5497 5499 5500 5502 5503 5504 5506 5506 5507 5508 5508 5508 5508 5509 5509 5509 5509 5510 5510 5510 5510 5511 5511 5511 5510 5509 5508 5508 5508 5508
5484 5483 5482 5482 5482 5481 5480 5479 5479 5480 5480 5480 5482 5483 5486 5488 5490 5491 5492 5492 5493 5495 5496 5496 5497 5497 5497 5497 5498 5498 5498 5499 5499 5500 5500 5500 5500 5500 5499 5498 5497 5497 5497 5497